Precipitable_Water
0.13 0.13 0.13 0.13 0.14 0.14 0.15 0.15 0.16 0.16 0.16 0.16 0.16 0.16 0.16 0.17 0.17 0.17 0.16 0.16 0.15 0.15 0.14 0.13 0.13 0.12 0.12 0.12 0.12 0.11 0.11 0.11 0.11 0.11 0.12 0.13 0.14 0.14 0.15 0.16 0.16 0.15 0.15 0.17 0.19 0.19 0.19 0.20 0.21 0.21 0.24 0.26 0.28 0.29 0.30 0.32 0.34 0.36 0.37 0.38 0.39 0.40 0.42
0.13 0.13 0.13 0.13 0.13 0.14 0.14 0.15 0.16 0.16 0.16 0.16 0.16 0.16 0.16 0.17 0.17 0.17 0.17 0.16 0.15 0.15 0.15 0.14 0.13 0.13 0.13 0.12 0.12 0.12 0.11 0.11 0.11 0.11 0.10 0.11 0.12 0.13 0.13 0.15 0.14 0.14 0.14 0.14 0.16 0.16 0.18 0.18 0.19 0.18 0.20 0.22 0.25 0.27 0.29 0.29 0.30 0.33 0.34 0.35 0.37 0.37 0.38
0.13 0.13 0.13 0.13 0.13 0.14 0.14 0.14 0.15 0.16 0.16 0.16 0.17 0.17 0.17 0.17 0.17 0.17 0.17 0.17 0.16 0.16 0.15 0.15 0.14 0.14 0.13 0.13 0.12 0.12 0.12 0.11 0.11 0.11 0.11 0.11 0.12 0.12 0.13 0.14 0.14 0.14 0.13 0.13 0.14 0.15 0.15 0.16 0.16 0.16 0.17 0.19 0.21 0.24 0.27 0.28 0.29 0.30 0.31 0.34 0.35 0.36 0.36
0.13 0.13 0.13 0.13 0.13 0.14 0.14 0.14 0.14 0.15 0.16 0.16 0.17 0.17 0.17 0.17 0.17 0.17 0.17 0.17 0.17 0.16 0.16 0.15 0.14 0.14 0.14 0.14 0.13 0.12 0.12 0.12 0.12 0.11 0.11 0.11 0.11 0.12 0.12 0.13 0.14 0.14 0.14 0.13 0.13 0.14 0.14 0.14 0.14 0.15 0.16 0.17 0.18 0.20 0.23 0.25 0.27 0.29 0.30 0.31 0.33 0.34 0.34
0.13 0.13 0.13 0.13 0.13 0.14 0.14 0.14 0.14 0.15 0.15 0.16 0.17 0.17 0.17 0.17 0.17 0.17 0.17 0.18 0.18 0.17 0.16 0.16 0.15 0.15 0.14 0.14 0.14 0.13 0.13 0.12 0.12 0.12 0.11 0.11 0.12 0.12 0.12 0.12 0.13 0.13 0.14 0.14 0.13 0.13 0.15 0.15 0.15 0.15 0.15 0.16 0.15 0.16 0.19 0.22 0.24 0.26 0.27 0.29 0.31 0.33 0.34
0.13 0.13 0.13 0.13 0.13 0.14 0.14 0.14 0.14 0.15 0.15 0.15 0.17 0.18 0.18 0.18 0.17 0.17 0.17 0.17 0.18 0.18 0.17 0.16 0.16 0.15 0.15 0.14 0.13 0.13 0.13 0.13 0.12 0.12 0.12 0.12 0.12 0.12 0.13 0.13 0.13 0.12 0.12 0.12 0.12 0.13 0.13 0.14 0.14 0.14 0.14 0.14 0.14 0.14 0.14 0.17 0.21 0.23 0.25 0.27 0.28 0.29 0.31
0.12 0.13 0.13 0.13 0.13 0.14 0.14 0.14 0.14 0.15 0.15 0.15 0.16 0.17 0.18 0.18 0.18 0.17 0.17 0.17 0.17 0.18 0.18 0.18 0.17 0.16 0.16 0.15 0.14 0.14 0.13 0.13 0.12 0.12 0.11 0.11 0.11 0.11 0.12 0.12 0.12 0.12 0.12 0.11 0.11 0.11 0.12 0.12 0.13 0.14 0.12 0.14 0.14 0.14 0.14 0.13 0.15 0.18 0.22 0.24 0.26 0.26 0.29
0.12 0.13 0.13 0.13 0.13 0.14 0.14 0.14 0.14 0.15 0.15 0.16 0.16 0.17 0.17 0.18 0.18 0.17 0.17 0.17 0.17 0.18 0.18 0.19 0.19 0.18 0.17 0.16 0.16 0.15 0.14 0.14 0.13 0.12 0.12 0.11 0.11 0.11 0.10 0.10 0.10 0.11 0.11 0.10 0.10 0.10 0.10 0.10 0.11 0.11 0.12 0.13 0.13 0.13 0.12 0.13 0.13 0.14 0.16 0.20 0.23 0.25 0.25
0.13 0.13 0.13 0.13 0.13 0.14 0.14 0.14 0.14 0.15 0.15 0.16 0.16 0.17 0.17 0.17 0.18 0.18 0.17 0.17 0.17 0.17 0.18 0.18 0.19 0.19 0.19 0.18 0.17 0.17 0.16 0.16 0.15 0.14 0.13 0.13 0.12 0.11 0.11 0.10 0.10 0.10 0.10 0.09 0.09 0.09 0.09 0.09 0.09 0.10 0.10 0.10 0.10 0.10 0.11 0.12 0.13 0.13 0.15 0.17 0.20 0.22 0.26
0.14 0.13 0.13 0.13 0.13 0.14 0.14 0.14 0.15 0.15 0.16 0.17 0.17 0.17 0.17 0.17 0.18 0.18 0.18 0.17 0.17 0.17 0.18 0.18 0.19 0.19 0.20 0.20 0.19 0.19 0.18 0.18 0.17 0.17 0.15 0.14 0.14 0.13 0.12 0.11 0.10 0.10 0.09 0.09 0.09 0.08 0.08 0.08 0.08 0.08 0.09 0.09 0.09 0.09 0.10 0.12 0.13 0.11 0.12 0.13 0.15 0.18 0.22
0.14 0.14 0.14 0.14 0.14 0.14 0.14 0.15 0.15 0.16 0.16 0.17 0.18 0.18 0.18 0.18 0.18 0.18 0.18 0.18 0.18 0.17 0.17 0.18 0.19 0.20 0.20 0.20 0.20 0.20 0.20 0.19 0.19 0.18 0.18 0.17 0.16 0.15 0.14 0.13 0.12 0.11 0.10 0.10 0.10 0.10 0.09 0.08 0.07 0.08 0.08 0.09 0.09 0.09 0.09 0.10 0.12 0.12 0.13 0.12 0.12 0.12 0.16
0.15 0.15 0.15 0.15 0.14 0.14 0.14 0.15 0.16 0.17 0.17 0.18 0.18 0.19 0.18 0.18 0.18 0.19 0.19 0.19 0.19 0.18 0.18 0.18 0.18 0.19 0.20 0.20 0.20 0.20 0.20 0.20 0.20 0.19 0.19 0.19 0.19 0.18 0.17 0.16 0.14 0.13 0.12 0.12 0.11 0.11 0.11 0.10 0.09 0.08 0.08 0.08 0.08 0.09 0.10 0.12 0.14 0.15 0.15 0.14 0.14 0.13 0.12
0.14 0.15 0.15 0.15 0.15 0.15 0.15 0.15 0.16 0.17 0.17 0.18 0.19 0.19 0.19 0.19 0.19 0.19 0.20 0.20 0.20 0.20 0.20 0.20 0.19 0.19 0.19 0.19 0.20 0.21 0.20 0.20 0.20 0.20 0.20 0.20 0.20 0.19 0.19 0.18 0.18 0.17 0.15 0.15 0.13 0.12 0.11 0.12 0.13 0.13 0.12 0.11 0.09 0.10 0.10 0.12 0.14 0.16 0.16 0.16 0.16 0.16 0.15
0.14 0.14 0.15 0.15 0.15 0.16 0.16 0.16 0.17 0.17 0.18 0.19 0.19 0.20 0.20 0.20 0.20 0.20 0.21 0.21 0.21 0.21 0.21 0.21 0.21 0.19 0.19 0.19 0.20 0.20 0.20 0.21 0.20 0.20 0.20 0.20 0.20 0.20 0.20 0.20 0.20 0.19 0.19 0.17 0.16 0.14 0.13 0.13 0.12 0.12 0.14 0.16 0.15 0.12 0.11 0.13 0.14 0.16 0.16 0.16 0.17 0.20 0.20
0.14 0.14 0.15 0.15 0.15 0.16 0.16 0.17 0.18 0.18 0.19 0.19 0.20 0.20 0.20 0.20 0.21 0.21 0.21 0.22 0.22 0.22 0.22 0.22 0.22 0.22 0.21 0.20 0.20 0.21 0.20 0.20 0.20 0.20 0.20 0.20 0.20 0.20 0.21 0.21 0.21 0.21 0.20 0.20 0.19 0.17 0.16 0.16 0.15 0.13 0.14 0.15 0.15 0.14 0.15 0.16 0.16 0.17 0.18 0.19 0.20 0.20 0.20
0.14 0.14 0.15 0.15 0.15 0.16 0.16 0.17 0.18 0.19 0.20 0.20 0.20 0.21 0.21 0.21 0.20 0.20 0.21 0.22 0.23 0.23 0.23 0.23 0.23 0.22 0.22 0.22 0.22 0.22 0.22 0.21 0.21 0.20 0.19 0.19 0.20 0.20 0.21 0.21 0.21 0.22 0.22 0.22 0.21 0.21 0.20 0.19 0.18 0.17 0.14 0.13 0.14 0.15 0.16 0.17 0.18 0.20 0.20 0.19 0.17 0.16 0.18
0.14 0.14 0.15 0.15 0.15 0.15 0.16 0.17 0.18 0.19 0.20 0.21 0.21 0.21 0.21 0.21 0.21 0.21 0.21 0.22 0.22 0.22 0.23 0.24 0.24 0.23 0.23 0.22 0.22 0.23 0.23 0.23 0.22 0.20 0.19 0.19 0.19 0.19 0.20 0.20 0.21 0.23 0.23 0.23 0.23 0.22 0.22 0.21 0.20 0.20 0.19 0.18 0.16 0.16 0.18 0.18 0.17 0.17 0.18 0.17 0.16 0.17 0.18
0.14 0.14 0.15 0.15 0.15 0.16 0.16 0.17 0.18 0.19 0.20 0.21 0.22 0.22 0.21 0.21 0.20 0.20 0.20 0.21 0.21 0.22 0.22 0.23 0.23 0.23 0.22 0.22 0.22 0.22 0.23 0.24 0.23 0.21 0.20 0.19 0.19 0.18 0.18 0.19 0.21 0.22 0.23 0.24 0.23 0.23 0.23 0.22 0.21 0.21 0.20 0.20 0.20 0.20 0.21 0.20 0.17 0.19 0.20 0.18 0.18 0.17 0.19
0.14 0.14 0.14 0.15 0.16 0.16 0.17 0.17 0.18 0.19 0.20 0.21 0.22 0.22 0.22 0.21 0.21 0.19 0.19 0.20 0.21 0.21 0.21 0.21 0.22 0.23 0.23 0.23 0.23 0.23 0.23 0.24 0.24 0.23 0.22 0.21 0.19 0.18 0.18 0.19 0.21 0.21 0.21 0.22 0.22 0.22 0.23 0.22 0.22 0.22 0.21 0.20 0.20 0.20 0.21 0.22 0.22 0.22 0.21 0.19 0.19 0.19 0.20
0.14 0.14 0.14 0.15 0.16 0.16 0.17 0.17 0.18 0.19 0.20 0.21 0.22 0.22 0.21 0.22 0.21 0.20 0.20 0.20 0.20 0.20 0.20 0.20 0.21 0.21 0.22 0.22 0.23 0.24 0.24 0.24 0.25 0.24 0.23 0.22 0.20 0.19 0.18 0.20 0.21 0.22 0.22 0.22 0.22 0.21 0.22 0.22 0.22 0.21 0.21 0.20 0.20 0.19 0.21 0.22 0.23 0.23 0.22 0.21 0.21 0.21 0.20
0.14 0.14 0.14 0.15 0.15 0.16 0.17 0.17 0.18 0.19 0.20 0.21 0.21 0.21 0.21 0.21 0.21 0.21 0.20 0.20 0.20 0.20 0.20 0.20 0.20 0.21 0.21 0.22 0.22 0.23 0.23 0.24 0.24 0.25 0.24 0.23 0.22 0.21 0.21 0.22 0.22 0.22 0.23 0.22 0.22 0.22 0.22 0.21 0.21 0.20 0.19 0.19 0.19 0.19 0.19 0.21 0.23 0.23 0.23 0.23 0.22 0.22 0.22
0.13 0.14 0.14 0.15 0.15 0.16 0.16 0.17 0.18 0.19 0.20 0.20 0.20 0.20 0.21 0.20 0.21 0.21 0.21 0.20 0.20 0.20 0.20 0.20 0.21 0.21 0.21 0.22 0.22 0.23 0.23 0.23 0.23 0.24 0.25 0.24 0.25 0.24 0.24 0.24 0.24 0.24 0.23 0.22 0.22 0.22 0.21 0.21 0.20 0.19 0.18 0.17 0.17 0.18 0.19 0.20 0.21 0.22 0.23 0.23 0.24 0.24 0.23
0.13 0.13 0.14 0.14 0.15 0.16 0.16 0.17 0.18 0.19 0.20 0.20 0.20 0.20 0.20 0.20 0.21 0.21 0.21 0.20 0.19 0.19 0.20 0.21 0.22 0.22 0.22 0.22 0.22 0.23 0.23 0.23 0.24 0.25 0.25 0.25 0.25 0.26 0.26 0.26 0.25 0.24 0.23 0.22 0.22 0.21 0.20 0.20 0.20 0.20 0.18 0.17 0.16 0.17 0.18 0.19 0.21 0.22 0.22 0.23 0.25 0.27 0.28
0.13 0.13 0.14 0.14 0.14 0.15 0.16 0.17 0.18 0.19 0.19 0.19 0.19 0.19 0.19 0.20 0.20 0.21 0.21 0.21 0.20 0.20 0.20 0.21 0.21 0.22 0.23 0.23 0.22 0.22 0.23 0.24 0.24 0.25 0.25 0.25 0.25 0.25 0.26 0.26 0.25 0.23 0.22 0.21 0.21 0.21 0.20 0.20 0.21 0.21 0.20 0.20 0.19 0.18 0.18 0.19 0.21 0.21 0.22 0.23 0.25 0.26 0.27
0.13 0.13 0.13 0.13 0.14 0.14 0.15 0.16 0.17 0.18 0.18 0.18 0.18 0.18 0.19 0.19 0.20 0.20 0.20 0.20 0.20 0.20 0.20 0.21 0.21 0.22 0.23 0.23 0.23 0.23 0.22 0.22 0.22 0.23 0.24 0.24 0.24 0.24 0.24 0.25 0.25 0.24 0.23 0.21 0.20 0.20 0.21 0.22 0.22 0.22 0.22 0.22 0.22 0.22 0.22 0.22 0.22 0.24 0.25 0.26 0.27 0.27 0.27
0.13 0.13 0.13 0.13 0.14 0.14 0.15 0.15 0.16 0.17 0.17 0.17 0.17 0.17 0.18 0.19 0.19 0.20 0.20 0.20 0.20 0.20 0.20 0.21 0.22 0.22 0.23 0.23 0.22 0.21 0.21 0.20 0.21 0.22 0.22 0.22 0.23 0.23 0.23 0.23 0.24 0.24 0.23 0.22 0.21 0.21 0.22 0.23 0.23 0.24 0.24 0.24 0.24 0.23 0.22 0.23 0.23 0.23 0.24 0.25 0.25 0.24 0.25
0.13 0.13 0.13 0.13 0.14 0.14 0.15 0.15 0.15 0.15 0.16 0.16 0.16 0.17 0.18 0.19 0.19 0.20 0.19 0.19 0.19 0.20 0.20 0.21 0.22 0.22 0.22 0.22 0.22 0.21 0.21 0.21 0.21 0.21 0.22 0.22 0.22 0.22 0.22 0.22 0.23 0.23 0.23 0.23 0.23 0.22 0.23 0.24 0.24 0.25 0.24 0.23 0.23 0.23 0.23 0.24 0.24 0.23 0.23 0.24 0.25 0.24 0.23
0.13 0.12 0.13 0.13 0.14 0.14 0.14 0.14 0.14 0.14 0.15 0.15 0.16 0.17 0.18 0.18 0.19 0.18 0.18 0.18 0.19 0.20 0.20 0.20 0.21 0.20 0.20 0.20 0.20 0.20 0.20 0.19 0.20 0.20 0.20 0.21 0.21 0.21 0.22 0.22 0.23 0.24 0.24 0.24 0.24 0.24 0.24 0.24 0.24 0.23 0.23 0.23 0.23 0.23 0.23 0.24 0.24 0.24 0.23 0.24 0.24 0.23 0.22
0.13 0.13 0.13 0.14 0.14 0.14 0.14 0.14 0.13 0.14 0.15 0.16 0.17 0.17 0.17 0.17 0.17 0.18 0.18 0.19 0.20 0.20 0.20 0.19 0.19 0.19 0.19 0.19 0.18 0.18 0.18 0.18 0.18 0.19 0.19 0.20 0.21 0.21 0.21 0.21 0.21 0.21 0.22 0.22 0.23 0.22 0.23 0.23 0.24 0.23 0.23 0.23 0.23 0.23 0.23 0.25 0.24 0.25 0.24 0.25 0.25 0.23 0.22
0.13 0.13 0.14 0.14 0.14 0.14 0.14 0.13 0.14 0.15 0.16 0.16 0.16 0.17 0.17 0.17 0.17 0.18 0.18 0.19 0.20 0.19 0.18 0.17 0.17 0.17 0.17 0.18 0.18 0.17 0.17 0.17 0.17 0.18 0.18 0.19 0.20 0.20 0.20 0.20 0.21 0.21 0.22 0.22 0.22 0.22 0.22 0.22 0.23 0.23 0.23 0.23 0.22 0.23 0.24 0.25 0.25 0.24 0.25 0.24 0.23 0.22 0.22
0.15 0.15 0.15 0.14 0.14 0.14 0.15 0.15 0.15 0.15 0.15 0.16 0.16 0.16 0.16 0.16 0.17 0.18 0.18 0.18 0.18 0.17 0.16 0.16 0.16 0.16 0.17 0.17 0.17 0.17 0.17 0.17 0.17 0.17 0.18 0.18 0.19 0.19 0.19 0.20 0.20 0.21 0.21 0.21 0.21 0.22 0.22 0.22 0.22 0.22 0.22 0.22 0.22 0.22 0.23 0.24 0.25 0.25 0.25 0.24 0.23 0.22 0.22
0.14 0.14 0.14 0.14 0.14 0.14 0.14 0.14 0.15 0.15 0.15 0.15 0.15 0.15 0.16 0.16 0.17 0.17 0.17 0.17 0.18 0.16 0.16 0.16 0.16 0.16 0.16 0.17 0.16 0.17 0.17 0.17 0.17 0.17 0.17 0.17 0.18 0.18 0.19 0.19 0.19 0.20 0.21 0.21 0.21 0.21 0.21 0.21 0.21 0.21 0.21 0.21 0.22 0.22 0.22 0.22 0.23 0.24 0.24 0.24 0.24 0.24 0.24
0.14 0.14 0.14 0.14 0.14 0.14 0.14 0.14 0.14 0.14 0.14 0.14 0.15 0.15 0.15 0.15 0.16 0.16 0.16 0.16 0.16 0.15 0.15 0.15 0.15 0.15 0.16 0.16 0.16 0.16 0.16 0.16 0.16 0.16 0.16 0.17 0.17 0.17 0.18 0.18 0.19 0.20 0.20 0.20 0.20 0.20 0.20 0.20 0.21 0.21 0.21 0.21 0.21 0.21 0.20 0.21 0.22 0.23 0.24 0.24 0.23 0.24 0.24
0.13 0.13 0.13 0.13 0.13 0.13 0.13 0.14 0.13 0.14 0.14 0.14 0.14 0.14 0.15 0.15 0.15 0.16 0.16 0.15 0.15 0.15 0.14 0.15 0.15 0.15 0.15 0.16 0.16 0.16 0.16 0.16 0.16 0.16 0.16 0.16 0.16 0.16 0.17 0.17 0.18 0.18 0.19 0.19 0.19 0.19 0.20 0.20 0.20 0.20 0.20 0.20 0.20 0.21 0.21 0.20 0.21 0.21 0.22 0.22 0.23 0.23 0.23
0.12 0.12 0.12 0.12 0.12 0.13 0.13 0.13 0.13 0.13 0.13 0.13 0.14 0.14 0.14 0.14 0.14 0.14 0.14 0.14 0.14 0.14 0.14 0.14 0.14 0.14 0.15 0.15 0.15 0.16 0.16 0.16 0.16 0.16 0.15 0.15 0.15 0.16 0.16 0.16 0.17 0.17 0.18 0.18 0.18 0.18 0.19 0.19 0.19 0.19 0.19 0.20 0.19 0.20 0.20 0.20 0.20 0.21 0.21 0.21 0.22 0.22 0.22
0.11 0.11 0.11 0.12 0.12 0.12 0.12 0.12 0.12 0.12 0.12 0.13 0.13 0.13 0.13 0.12 0.12 0.13 0.13 0.13 0.13 0.14 0.14 0.14 0.14 0.14 0.14 0.15 0.15 0.15 0.15 0.16 0.15 0.15 0.15 0.15 0.15 0.15 0.16 0.16 0.16 0.16 0.17 0.17 0.17 0.17 0.18 0.18 0.18 0.19 0.19 0.19 0.19 0.19 0.19 0.19 0.20 0.20 0.21 0.21 0.22 0.22 0.22
Wind_Speed
23 23 23 23 23 24 23 23 23 23 22 23 23 23 23 23 23 23 23 24 25 26 28 31 34 36 39 41 43 45 47 50 52 54 57 58 60 61 62 62 62 62 62 62 62 63 64 65 66 67 67 67 67 68 68 68 67 66 66 65 65 64 63
24 24 24 24 24 24 24 24 23 23 22 22 23 22 22 22 22 22 22 23 23 24 25 27 29 32 35 38 40 42 44 46 49 51 53 55 57 59 60 61 62 62 62 62 61 62 63 63 65 67 68 68 68 68 69 69 69 68 68 67 66 66 65
25 25 25 24 24 24 24 24 24 23 23 22 22 22 22 22 22 22 22 22 22 22 23 24 25 28 31 34 37 39 41 43 45 47 49 51 53 55 57 58 60 61 61 61 61 61 61 62 63 65 67 68 69 69 69 70 70 70 70 69 68 67 67
26 26 25 25 25 25 24 24 24 23 23 23 22 22 22 21 21 21 21 21 21 21 21 21 23 24 26 29 32 35 37 39 41 43 45 47 49 51 53 55 57 59 60 60 61 61 61 61 62 63 65 67 69 70 70 71 71 71 71 71 71 70 69
26 26 26 26 25 25 24 24 24 23 23 22 22 22 21 21 21 21 21 20 20 20 20 20 20 22 23 25 28 30 33 35 37 39 41 43 45 47 49 51 53 55 57 58 60 60 60 60 61 62 63 65 67 69 71 71 72 72 72 72 73 72 71
27 27 27 26 26 25 25 24 24 24 23 22 22 22 21 21 20 20 20 20 20 20 19 19 19 20 21 22 24 27 29 31 33 35 36 38 40 42 44 47 49 51 53 56 58 59 59 59 60 61 62 62 64 67 70 71 73 73 73 72 73 73 73
27 27 27 27 26 25 25 25 24 24 23 22 22 21 21 21 20 20 20 20 20 19 19 19 19 19 20 21 22 24 26 28 29 31 33 35 36 38 40 42 45 47 49 52 54 56 58 59 60 60 61 61 62 64 67 70 72 73 74 73 73 74 74
27 27 27 27 26 26 25 25 24 24 23 23 22 21 20 20 20 20 20 20 20 19 19 19 19 19 20 20 21 23 24 26 27 29 30 32 33 35 37 38 40 42 45 47 49 52 54 56 58 60 61 61 61 62 65 66 69 72 74 74 74 74 74
28 28 28 27 27 26 26 25 24 24 23 23 22 21 21 20 20 20 20 19 19 19 19 19 19 20 20 21 22 23 24 25 27 28 29 30 31 32 33 35 37 38 40 42 44 46 49 51 54 57 58 60 60 61 63 63 65 69 72 73 74 74 74
28 28 28 28 27 27 26 25 25 25 24 24 23 22 21 21 20 20 20 19 19 19 19 20 20 20 21 22 22 23 24 25 26 28 28 29 30 31 32 33 34 35 37 38 39 41 43 46 49 52 54 56 58 59 61 61 63 65 68 71 73 74 75
28 28 28 28 28 27 27 26 25 26 26 25 24 23 22 21 20 20 19 19 19 19 20 20 20 20 21 22 22 23 24 25 26 27 28 29 30 31 31 32 32 33 34 36 36 37 38 41 43 46 48 51 54 55 57 59 60 62 64 66 69 71 73
27 27 27 27 27 27 27 27 26 26 26 25 24 23 22 22 21 20 20 20 20 20 20 20 20 20 21 21 22 23 24 25 26 27 28 29 30 31 32 32 33 33 33 34 34 35 35 36 37 39 42 45 48 50 53 54 56 59 61 62 64 67 70
27 27 27 27 27 27 27 26 26 26 26 25 25 24 23 22 22 22 21 21 21 21 21 21 21 21 21 21 22 22 23 24 25 26 27 28 29 30 32 33 34 34 34 33 33 34 34 34 34 34 35 37 41 45 48 50 52 54 56 58 60 63 66
26 26 26 26 26 26 26 26 26 26 26 25 25 24 24 23 23 23 22 22 22 22 22 22 21 21 21 21 21 22 22 23 24 25 26 27 28 29 30 31 33 34 35 34 34 34 34 34 34 34 33 33 35 39 42 45 47 50 51 53 55 57 60
26 25 25 24 24 25 25 25 25 25 25 25 24 24 24 23 24 24 23 23 21 21 21 21 21 21 21 21 21 21 22 23 24 25 25 26 27 28 29 29 30 31 32 33 33 34 34 33 33 34 34 34 34 35 38 41 43 45 47 49 51 52 55
25 24 24 24 23 24 24 24 24 24 24 24 24 23 23 23 24 24 23 22 19 19 20 20 20 21 21 21 21 22 22 23 23 24 25 26 27 28 28 28 29 30 31 32 32 33 33 33 33 33 34 35 35 35 36 38 40 42 43 44 46 48 49
24 23 23 23 23 23 23 23 23 23 23 23 23 22 22 23 24 23 23 21 19 18 18 18 19 20 20 21 22 22 23 24 23 24 25 26 27 28 28 28 29 30 31 32 32 33 33 33 33 33 33 34 34 34 34 35 37 38 39 39 40 42 44
23 23 23 23 22 22 22 22 22 22 22 22 22 22 22 23 23 22 22 22 20 19 18 18 19 20 20 21 22 22 23 23 24 24 25 26 27 28 28 28 28 28 29 30 31 31 32 32 32 33 33 33 34 34 33 33 34 34 34 35 37 38 39
23 23 22 22 22 21 21 21 21 21 22 21 21 21 21 21 21 21 22 22 21 21 20 19 20 20 21 21 21 22 22 23 24 24 24 25 26 27 28 28 27 27 27 27 28 29 30 30 31 31 31 32 33 34 33 31 31 32 32 33 34 35 36
22 22 22 21 21 20 20 20 20 20 21 21 21 21 21 20 20 20 21 22 21 21 21 21 21 21 21 21 21 21 22 22 23 23 24 24 25 26 27 27 26 27 26 26 26 27 28 28 29 29 30 30 32 33 33 31 31 31 31 30 31 32 33
22 22 21 20 20 19 19 19 19 19 20 20 20 20 20 20 19 20 21 21 20 21 21 21 20 20 21 21 21 21 21 21 21 22 22 23 24 25 26 26 26 26 27 26 25 25 26 27 27 28 28 29 30 31 32 31 31 31 30 30 30 30 30
21 21 21 20 19 19 18 18 18 19 19 20 20 20 20 20 19 20 20 20 20 20 20 20 20 20 20 20 20 21 21 21 21 20 20 21 23 25 26 26 25 25 26 26 25 25 25 25 26 26 27 27 28 30 30 31 31 31 31 30 30 30 29
21 20 20 19 18 18 17 17 17 18 18 18 19 19 19 19 19 19 19 19 19 20 20 20 20 20 20 20 20 20 20 20 20 19 18 18 19 21 23 24 23 23 24 25 25 24 24 24 25 26 26 26 26 28 29 30 30 31 31 30 30 30 29
20 20 19 18 18 17 17 16 16 17 17 18 18 19 19 19 19 19 19 19 19 20 20 20 20 20 21 21 20 19 19 18 18 17 16 16 17 17 19 20 21 21 22 23 23 23 23 23 24 25 25 25 25 26 27 28 29 30 30 30 29 29 29
19 19 18 18 17 17 17 16 16 16 17 17 18 19 19 19 19 19 19 19 19 20 20 20 20 21 21 20 20 19 18 18 18 17 17 17 17 17 17 18 19 20 21 21 22 22 22 22 23 24 24 25 25 25 26 27 27 28 29 29 29 29 29
18 18 17 17 17 17 17 16 16 16 16 17 18 18 19 19 19 19 19 20 20 20 20 20 20 20 20 19 19 19 18 18 17 17 17 17 17 17 17 17 18 19 20 21 22 22 22 22 22 23 23 24 24 25 25 26 26 27 28 28 29 29 29
17 17 17 17 17 17 16 16 16 16 16 17 18 18 18 18 18 19 19 19 19 19 19 19 19 18 18 19 19 19 18 18 17 17 16 16 17 17 17 17 17 17 19 20 21 21 21 21 21 22 23 23 23 24 25 26 26 26 27 27 28 28 29
17 17 17 17 17 16 16 16 16 16 17 17 18 18 18 18 18 18 18 18 19 19 19 18 18 18 18 18 18 18 19 18 17 17 16 16 16 16 17 17 16 16 17 18 19 20 20 20 20 21 22 22 22 23 24 25 25 26 26 26 27 27 28
16 16 17 17 17 16 15 16 16 17 17 18 18 18 18 18 19 18 18 18 18 18 17 18 18 18 18 18 18 18 18 18 17 16 16 16 16 15 15 16 16 16 16 16 16 17 18 19 19 19 20 21 21 22 23 24 24 25 25 25 26 26 26
17 17 17 16 16 16 16 17 17 17 18 18 19 18 18 19 19 19 18 18 17 17 17 18 18 18 18 17 17 17 17 17 17 16 16 16 15 15 15 15 15 15 15 15 15 16 16 17 18 19 20 20 21 22 23 23 24 25 25 25 25 26 26
17 17 16 15 16 16 17 17 18 18 18 18 17 18 18 18 18 18 18 17 17 17 17 18 17 17 17 17 17 16 16 16 17 16 16 16 15 15 15 15 15 15 15 15 15 16 16 17 17 18 19 20 21 22 22 23 23 24 25 25 26 26 26
16 16 15 16 16 17 17 18 18 18 17 17 17 17 18 17 17 16 16 16 16 16 16 16 17 17 17 17 16 16 16 16 17 17 17 16 15 15 15 14 14 15 15 15 15 15 16 16 17 18 19 20 21 22 23 23 24 24 25 25 25 26 26
15 15 16 16 16 17 17 17 16 16 16 16 16 16 16 16 15 14 14 15 15 15 15 15 16 16 16 16 16 16 16 16 17 17 17 16 16 15 15 15 15 15 15 15 15 15 15 16 16 17 18 19 20 22 23 24 25 25 25 25 25 25 25
15 15 16 16 16 16 15 15 15 15 15 15 15 15 15 14 14 14 13 13 13 14 14 15 15 16 16 16 16 16 16 16 16 16 17 17 16 16 16 16 16 16 15 15 15 16 16 16 16 17 18 19 20 21 22 23 24 25 26 26 26 26 26
15 15 15 15 15 15 14 14 14 14 14 14 14 13 13 12 12 13 12 12 12 13 13 14 14 15 15 16 16 16 16 15 16 16 16 16 16 16 16 16 16 16 16 16 16 16 16 16 17 17 17 18 19 20 21 22 23 24 26 26 26 27 27
15 15 15 15 14 14 14 14 13 13 13 13 12 12 11 11 11 11 11 11 12 12 12 13 13 14 14 15 15 15 15 15 15 16 16 16 16 16 16 16 16 16 16 16 17 17 17 17 17 17 17 18 18 19 20 21 22 23 25 26 26 27 27
Wind_Direction
300 301 302 303 304 303 302 301 300 300 300 299 297 293 291 289 287 283 280 278 273 268 263 258 254 250 247 244 242 241 240 240 239 239 239 239 239 239 238 238 239 239 239 239 239 240 240 241 241 241 240 240 240 240 240 240 240 240 240 240 241 241 240
297 298 300 301 302 302 301 300 299 299 300 300 298 296 293 291 288 285 282 279 276 272 267 262 257 252 248 245 243 242 241 240 240 239 239 239 239 239 239 239 239 239 239 240 240 240 240 241 241 241 241 241 241 241 240 240 240 240 240 240 240 240 240
294 296 297 299 300 300 300 299 297 297 298 298 298 297 295 292 289 286 283 280 278 275 270 265 260 255 251 247 244 242 241 240 240 239 239 239 239 239 239 239 239 239 240 240 240 240 241 241 241 241 241 241 241 241 241 241 240 240 240 240 240 240 240
292 293 295 296 297 298 299 298 296 295 295 296 296 296 297 295 291 287 284 281 279 276 272 268 263 258 253 249 245 243 242 240 240 239 239 239 239 239 239 240 240 240 240 240 241 241 241 242 242 242 242 242 242 242 241 241 241 241 241 240 240 240 240
290 291 292 294 295 296 296 296 295 294 294 294 293 294 296 297 294 288 284 281 279 277 273 269 265 260 255 250 246 244 242 240 239 239 239 239 239 239 240 240 240 240 241 241 241 241 241 242 242 242 242 242 243 242 242 242 241 241 241 241 241 240 240
289 289 290 291 292 293 294 294 294 293 293 292 292 292 294 295 294 290 286 282 279 277 274 270 266 262 257 252 248 244 242 240 239 238 238 238 239 239 240 240 240 241 242 242 242 242 242 242 242 243 243 243 243 243 243 242 242 241 241 241 241 241 240
288 287 288 288 289 290 291 292 292 291 291 290 290 290 292 293 293 291 288 283 278 276 273 270 267 263 259 254 250 246 243 241 239 239 238 239 239 239 239 240 241 242 242 243 243 243 243 243 243 243 243 243 243 243 243 243 242 242 241 241 241 241 241
287 287 286 286 286 287 289 290 289 289 288 288 288 288 289 291 291 290 288 284 279 275 272 270 268 264 260 256 252 249 245 242 240 240 239 239 239 239 240 241 242 242 243 244 245 245 245 244 244 244 244 244 244 243 243 243 243 242 241 241 241 241 241
286 286 285 284 284 285 286 287 287 286 286 285 285 285 286 288 289 288 286 285 281 277 272 270 268 265 262 258 255 252 249 246 243 242 241 241 240 241 241 242 242 243 244 245 246 246 246 245 245 244 244 244 244 244 244 244 243 243 242 241 241 241 240
286 285 284 283 283 283 283 285 285 284 283 282 282 282 283 285 287 287 286 284 282 279 275 271 269 266 263 260 257 254 251 249 247 245 245 244 243 242 242 243 243 244 245 246 247 247 247 247 246 245 244 244 244 244 244 243 243 243 242 241 241 240 240
286 285 284 283 282 281 282 283 283 282 281 280 279 279 280 282 283 284 285 284 282 281 279 275 270 267 264 261 258 256 253 251 249 248 247 247 246 245 244 244 244 245 245 246 247 248 248 248 248 247 246 245 244 244 243 243 242 242 242 241 241 240 239
287 286 285 283 282 281 281 281 281 280 279 278 277 276 277 278 279 280 282 281 280 279 279 277 273 269 266 263 259 257 255 253 251 250 249 249 248 247 246 245 245 245 246 246 247 248 248 248 249 249 247 245 244 243 242 242 242 242 242 241 241 240 239
287 286 285 283 282 281 280 280 280 279 278 277 275 274 274 275 275 276 277 277 277 276 275 275 273 270 268 264 261 259 256 254 253 251 251 250 250 249 248 247 246 246 247 247 248 249 249 249 249 249 248 246 243 242 241 241 242 242 242 242 242 241 240
287 286 285 284 283 281 280 280 279 278 277 276 274 273 272 272 272 275 277 277 276 275 273 272 270 269 268 266 264 261 259 257 255 254 253 252 252 251 250 248 247 246 246 247 248 249 250 250 249 248 247 246 244 242 241 241 242 242 242 242 242 242 241
288 286 285 284 283 282 281 280 279 278 276 275 274 272 271 270 272 276 278 278 277 274 271 269 267 267 267 267 266 264 261 260 258 256 255 254 252 251 251 250 249 248 247 247 247 247 249 250 250 248 247 246 245 245 243 243 243 243 243 243 243 242 241
288 287 285 284 283 282 281 280 279 278 276 275 274 272 271 272 273 275 276 278 279 276 272 269 266 266 266 267 267 266 264 262 261 258 256 254 253 252 251 250 250 249 249 248 248 247 248 249 249 249 248 246 245 245 245 244 244 244 243 243 243 242 241
289 287 286 285 284 282 282 281 279 278 277 276 275 273 273 273 273 272 273 276 278 277 275 271 268 267 267 267 267 266 265 264 262 260 258 255 253 252 251 250 250 250 250 250 249 248 248 248 248 247 247 246 245 244 244 244 244 243 241 241 242 242 241
290 288 287 286 284 282 282 280 279 278 278 277 276 276 276 274 272 271 271 273 274 274 275 274 270 268 268 267 266 266 266 265 264 262 260 256 253 250 249 249 250 250 251 251 251 250 249 248 248 246 246 245 244 243 242 242 242 240 239 239 240 241 241
290 289 288 286 285 283 281 280 279 279 278 277 278 279 278 277 274 271 270 271 272 272 273 274 272 271 270 269 268 267 267 266 266 264 261 257 253 249 247 249 250 251 252 252 252 251 250 249 248 246 245 244 243 243 242 241 240 239 237 238 239 240 241
291 289 288 287 285 283 282 280 279 279 278 278 280 281 280 278 276 272 269 270 271 271 272 273 273 273 272 271 270 269 269 269 268 266 262 258 254 248 246 249 250 251 251 252 252 252 251 249 248 247 245 243 242 241 240 240 239 237 236 236 238 239 240
291 290 289 288 286 284 282 281 279 279 279 279 281 282 281 278 276 273 271 270 270 270 272 273 273 273 273 271 270 269 269 271 272 269 263 258 254 250 248 249 251 251 252 252 252 251 250 249 248 247 245 243 241 239 238 237 237 236 235 235 237 239 240
291 290 289 288 287 285 283 282 280 279 279 280 282 283 282 279 276 274 272 271 270 270 270 271 272 273 273 272 269 268 268 271 273 273 267 260 255 251 250 251 252 252 252 252 251 250 249 247 246 245 245 243 240 238 237 235 235 234 234 235 237 239 240
291 290 289 288 288 287 285 283 281 280 280 281 282 284 283 281 278 274 272 271 270 269 269 271 272 272 272 272 270 268 269 270 272 273 269 263 258 253 252 252 250 249 249 250 250 248 246 245 244 243 243 242 239 236 235 234 233 233 233 235 237 239 240
291 290 288 288 288 288 287 285 282 280 280 282 283 284 284 282 279 276 273 271 269 268 269 269 270 271 272 272 270 268 268 270 271 271 268 265 261 257 254 252 249 246 247 249 249 246 245 244 243 241 240 240 239 235 233 232 232 233 234 235 237 238 239
290 288 287 288 288 289 288 285 282 280 281 283 285 285 285 283 280 277 275 271 269 268 268 268 269 271 272 271 268 266 266 268 270 270 268 265 263 260 257 254 251 248 247 248 247 246 245 245 243 241 238 238 237 235 233 232 232 234 235 236 237 238 239
288 287 288 288 288 289 288 285 282 281 282 286 287 287 286 283 280 279 277 273 270 269 268 268 268 269 269 268 266 265 264 264 267 268 267 264 262 261 259 258 255 252 249 247 247 245 245 245 243 240 238 237 236 234 233 233 233 235 236 236 237 238 238
286 286 288 289 289 289 286 284 283 283 285 288 289 289 287 285 283 281 279 277 274 270 268 267 266 267 267 266 265 264 262 261 262 264 265 264 262 260 259 258 258 256 252 249 247 245 244 243 242 239 237 236 235 233 233 233 234 236 237 237 237 237 236
284 286 289 290 290 289 287 285 284 286 287 290 291 290 288 287 285 282 281 280 278 272 267 265 265 266 268 267 265 263 261 259 258 260 262 263 262 260 258 256 256 256 254 251 248 246 244 241 240 238 236 235 234 233 233 233 234 236 237 236 236 235 235
282 286 291 292 290 289 287 285 285 287 289 291 292 291 291 289 286 283 282 282 280 273 266 264 265 267 268 267 265 263 261 259 257 257 258 260 260 259 258 255 253 253 254 252 248 246 243 240 238 237 236 234 233 233 233 233 234 236 236 236 236 235 235
281 287 292 291 288 286 285 285 286 288 290 291 292 292 291 288 286 284 282 281 278 272 267 266 266 267 267 266 264 263 261 259 257 257 257 256 256 257 257 255 253 252 252 251 248 246 244 242 239 238 236 234 233 234 235 235 235 236 236 235 235 235 235
284 287 287 286 285 285 285 286 288 289 290 291 291 292 291 289 287 284 281 277 275 273 270 267 266 266 266 265 264 263 261 259 256 255 255 255 253 253 254 255 255 254 252 251 250 247 244 243 242 242 240 238 237 237 237 237 237 237 236 235 235 234 234
285 284 283 283 285 286 287 289 289 289 289 290 290 291 291 291 289 286 282 278 276 274 272 269 266 265 265 264 262 261 260 258 255 253 253 252 251 251 252 252 253 253 252 251 251 250 247 245 243 243 243 242 241 240 239 239 238 237 236 236 236 235 235
282 283 284 285 287 288 289 290 289 289 289 289 290 292 293 291 290 290 288 282 277 275 273 269 266 264 263 262 260 259 258 256 254 252 251 250 251 251 251 251 251 252 251 251 251 252 251 249 247 245 243 243 242 242 241 240 240 239 238 237 237 236 236
280 283 286 288 289 290 291 290 289 289 289 290 293 296 295 291 290 292 293 286 279 276 275 272 268 265 262 260 258 257 256 255 253 251 250 250 251 251 252 252 251 251 252 252 252 252 252 252 251 250 247 245 243 242 242 241 241 241 241 240 238 237 237
279 282 284 286 288 289 291 291 290 290 291 293 297 299 297 294 292 292 293 290 285 280 277 275 271 266 262 259 256 255 255 254 253 251 250 249 250 251 252 252 252 253 253 254 253 253 253 253 253 253 252 250 248 246 244 243 242 242 242 242 241 239 239
278 279 282 284 285 288 291 292 292 292 294 297 300 300 297 296 296 296 295 293 290 285 281 277 274 269 263 258 255 253 253 253 252 251 250 248 249 251 252 253 253 254 254 254 254 254 254 254 254 253 253 252 251 249 248 246 245 244 243 243 242 241 240